TimeMST,TemperatureF,Dew PointF,Humidity,Sea Level PressureIn,VisibilityMPH,Wind Direction,Wind SpeedMPH,Gust SpeedMPH,PrecipitationIn,Events,Conditions,WindDirDegrees,DateUTC
12:53 AM,80.1,21.9,12,29.72,10.0,West,3.5,-,N/A,,Clear,280,2013-06-09 07:53:00
1:53 AM,75.9,21.9,13,29.73,10.0,West,3.5,-,N/A,,Clear,260,2013-06-09 08:53:00
2:53 AM,75.0,21.9,14,29.73,10.0,Calm,Calm,-,N/A,,Clear,0,2013-06-09 09:53:00
3:53 AM,75.0,19.9,13,29.74,10.0,Calm,Calm,-,N/A,,Clear,0,2013-06-09 10:53:00
4:53 AM,72.0,21.9,15,29.77,10.0,Calm,Calm,-,N/A,,Clear,0,2013-06-09 11:53:00
5:53 AM,73.0,25.0,17,29.78,10.0,Calm,Calm,-,N/A,,Clear,0,2013-06-09 12:53:00
6:53 AM,79.0,21.0,12,29.79,10.0,Calm,Calm,-,N/A,,Clear,0,2013-06-09 13:53:00
7:53 AM,82.0,19.9,10,29.80,10.0,NNW,3.5,-,N/A,,Clear,330,2013-06-09 14:53:00
8:53 AM,84.9,19.0,9,29.80,10.0,NNW,3.5,-,N/A,,Clear,330,2013-06-09 15:53:00
9:53 AM,89.1,19.0,8,29.79,10.0,Calm,Calm,-,N/A,,Clear,0,2013-06-09 16:53:00
10:53 AM,93.0,19.9,7,29.78,10.0,Calm,Calm,-,N/A,,Clear,0,2013-06-09 17:53:00
11:53 AM,97.0,19.9,6,29.77,10.0,ENE,5.8,-,N/A,,Clear,70,2013-06-09 18:53:00
12:53 PM,98.1,19.9,6,29.75,10.0,North,6.9,-,N/A,,Clear,350,2013-06-09 19:53:00
1:53 PM,100.9,19.0,5,29.72,10.0,East,4.6,-,N/A,,Clear,80,2013-06-09 20:53:00
2:53 PM,102.9,21.0,5,29.70,10.0,ENE,6.9,-,N/A,,Clear,70,2013-06-09 21:53:00
3:53 PM,102.9,21.0,5,29.67,10.0,NNE,4.6,-,N/A,,Clear,20,2013-06-09 22:53:00
4:53 PM,102.9,19.9,5,29.65,10.0,NE,5.8,-,N/A,,Clear,40,2013-06-09 23:53:00
5:53 PM,102.0,21.0,6,29.63,10.0,NE,9.2,-,N/A,,Clear,50,2013-06-10 00:53:00
6:53 PM,100.0,19.9,6,29.62,10.0,East,4.6,-,N/A,,Clear,90,2013-06-10 01:53:00
7:53 PM,93.9,25.0,8,29.64,10.0,Calm,Calm,-,N/A,,Clear,0,2013-06-10 02:53:00
8:53 PM,91.9,26.1,9,29.65,10.0,West,3.5,-,N/A,,Clear,270,2013-06-10 03:53:00
9:53 PM,91.0,24.1,9,29.67,10.0,WSW,4.6,-,N/A,,Clear,250,2013-06-10 04:53:00
10:53 PM,91.0,21.9,8,29.68,10.0,West,6.9,-,N/A,,Clear,260,2013-06-10 05:53:00
11:53 PM,89.1,19.9,8,29.69,10.0,West,3.5,-,N/A,,Clear,270,2013-06-10 06:53:00